Hayward, WI

1:04 PM CDT on June 22, 2018 (GMT -0500)
Sawyer County

Weather History for KHYR - January, 2017

Change the Weather History Date:

Sunday, January 1, 2017

  Actual Average Record
Temperature  
Mean Temperature 24 °F -  
Max Temperature 27 °F 31 °F 37 °F (1949)
Min Temperature 21 °F 1 °F -24 °F (1999)
Degree Days  
Heating Degree Days 41    
Moisture  
Dew Point 16 °F    
Average Humidity 70    
Maximum Humidity 78    
Minimum Humidity 63    
Precipitation  
Precipitation 0.00 in - - ()
Sea Level Pressure  
Sea Level Pressure 30.01 in    
Wind  
Wind Speed 7 mph (WSW)    
Max Wind Speed 10 mph    
Max Gust Speed -    
Visibility 10 miles    
Events      
Averages and records for this station are not official NWS values.
T = Trace of Precipitation, MM = Missing Value Source: NWS Daily Summary

Daily Weather History Graph

Daily Weather History Graph

Search for Another Location

Airport or City:

Astronomy

Jan. 01, 2017 Rise Set
Actual Time 7:47 AM CST 4:31 PM CST
Civil Twilight 7:13 AM CST 5:05 PM CST
Nautical Twilight 6:35 AM CST 5:43 PM CST
Astronomical Twilight 5:59 AM CST 6:20 PM CST
Moon 9:47 AM CST (1/1) 8:16 PM CST (1/1)
Length of Visible Light 9h 52m
Length of Day
8h 43m
Waxing Crescent, 12% of the Moon is Illuminated
Jan 1
Waxing Crescent
Jan 5
First Quarter
Jan 12
Full
Jan 19
Last Quarter
Jan 27
New

Hourly Weather History & Observations

Time (CST) Temp. Windchill Dew Point Humidity Pressure Visibility Wind Dir Wind Speed Gust Speed Precip Events Conditions
12:53 AM 23.0 °F 12.4 °F 16.0 °F 74% 29.76 in 10.0 mi SSW 10.4 mph - N/A   Overcast
1:22 AM 24.1 °F 16.0 °F 16.0 °F 71% 29.72 in 10.0 mi SSW 6.9 mph - N/A   Overcast
1:53 AM 23.0 °F 12.4 °F 16.0 °F 74% 29.78 in 10.0 mi SSW 10.4 mph - N/A   Overcast
2:41 AM 24.1 °F 15.2 °F 16.0 °F 71% 29.73 in 10.0 mi SW 8.1 mph - N/A   Scattered Clouds
2:53 AM 24.1 °F 16.0 °F 16.0 °F 71% 29.79 in 10.0 mi SSW 6.9 mph - N/A   Partly Cloudy
3:53 AM 23.0 °F 13.9 °F 16.0 °F 74% 29.81 in 10.0 mi SW 8.1 mph - N/A   Clear
4:53 AM 23.0 °F 15.8 °F 16.0 °F 74% 29.83 in 10.0 mi SW 5.8 mph - N/A   Clear
5:53 AM 21.9 °F 15.7 °F 16.0 °F 78% 29.86 in 10.0 mi SW 4.6 mph - N/A   Mostly Cloudy
6:53 AM 24.1 °F 16.0 °F 17.1 °F 75% 29.89 in 10.0 mi WSW 6.9 mph - N/A   Overcast
7:53 AM 24.1 °F 17.0 °F 17.1 °F 75% 29.93 in 10.0 mi SW 5.8 mph - N/A   Overcast
8:53 AM 24.1 °F 17.0 °F 17.1 °F 75% 29.97 in 10.0 mi WSW 5.8 mph - N/A   Overcast
9:33 AM 25.0 °F 18.1 °F 17.1 °F 72% 29.93 in 10.0 mi SW 5.8 mph - N/A   Overcast
9:53 AM 26.1 °F - 17.1 °F 69% 30.01 in 10.0 mi Calm Calm - N/A   Overcast
10:53 AM 26.1 °F 20.5 °F 18.0 °F 71% 30.04 in 10.0 mi Variable 4.6 mph - N/A   Overcast
11:53 AM 27.0 °F 19.5 °F 16.0 °F 63% 30.05 in 10.0 mi Variable 6.9 mph - N/A   Overcast
12:53 PM 27.0 °F 23.0 °F 17.1 °F 66% 30.06 in 10.0 mi Variable 3.5 mph - N/A   Overcast
1:53 PM 27.0 °F 21.6 °F 16.0 °F 63% 30.07 in 10.0 mi WNW 4.6 mph - N/A   Overcast
2:53 PM 26.1 °F 18.4 °F 15.1 °F 63% 30.09 in 10.0 mi NNE 6.9 mph - N/A   Overcast
3:53 PM 26.1 °F 20.5 °F 15.1 °F 63% 30.13 in 10.0 mi NE 4.6 mph - N/A   Overcast
4:53 PM 26.1 °F - 15.1 °F 63% 30.17 in 10.0 mi Calm Calm - N/A   Overcast
5:53 PM 25.0 °F 18.1 °F 16.0 °F 69% 30.18 in 10.0 mi NE 5.8 mph - N/A   Overcast
6:53 PM 24.1 °F 17.0 °F 15.1 °F 69% 30.19 in 10.0 mi NNE 5.8 mph - N/A   Overcast
7:53 PM 24.1 °F 17.0 °F 15.1 °F 69% 30.21 in 10.0 mi NE 5.8 mph - N/A   Overcast
8:51 PM 24.8 °F 19.1 °F 15.8 °F 69% 30.15 in 10.0 mi NE 4.6 mph - N/A   Mostly Cloudy
8:53 PM 24.1 °F 18.2 °F 15.1 °F 69% 30.21 in 10.0 mi NE 4.6 mph - N/A   Mostly Cloudy
9:53 PM 24.1 °F 17.0 °F 15.1 °F 69% 30.20 in 10.0 mi ENE 5.8 mph - N/A   Overcast
10:53 PM 24.1 °F 18.2 °F 15.1 °F 69% 30.21 in 10.0 mi NE 4.6 mph - N/A   Overcast
11:53 PM 24.1 °F 15.2 °F 16.0 °F 71% 30.21 in 10.0 mi NNE 8.1 mph - N/A   Overcast